This is the latest recevied weather packets stored in our database for station/object F4IKI-10. If no packets are shown the sender has not sent any weather packets the latest 10 day(s).
| Time | Temp. | Humidity | Pressure | Rain* | Wind** | Luminosity | Snow |
|---|---|---|---|---|---|---|---|
| 1778010248 | 20.56° C | 59% | 1016.1 hPa | - | - | - | - |
| 1778009380 | 20.56° C | 59% | 1015.9 hPa | - | - | - | - |
| 1778009347 | 20.56° C | 59% | 1015.9 hPa | - | - | - | - |
| 1778008447 | 20.56° C | 59% | 1016 hPa | - | - | - | - |
| 1778007547 | 20.56° C | 58% | 1015.8 hPa | - | - | - | - |
| 1778006647 | 21.11° C | 58% | 1015.7 hPa | - | - | - | - |
| 1778005747 | 21.11° C | 57% | 1015.5 hPa | - | - | - | - |
| 1778004847 | 21.11° C | 57% | 1015.6 hPa | - | - | - | - |
| 1778003947 | 21.11° C | 56% | 1015.4 hPa | - | - | - | - |
| 1778003046 | 21.11° C | 56% | 1015.5 hPa | - | - | - | - |
| 1778002147 | 21.11° C | 55% | 1015.5 hPa | - | - | - | - |
| 1778001246 | 21.11° C | 55% | 1015.4 hPa | - | - | - | - |
| 1778000346 | 21.11° C | 54% | 1015.6 hPa | - | - | - | - |
| 1777999446 | 21.11° C | 53% | 1015.5 hPa | - | - | - | - |
| 1777998546 | 21.11° C | 53% | 1015.7 hPa | - | - | - | - |
| 1777997646 | 21.11° C | 51% | 1015.7 hPa | - | - | - | - |
| 1777996746 | 18.89° C | 55% | 1015.7 hPa | - | - | - | - |
| 1777995846 | 18.89° C | 53% | 1015.6 hPa | - | - | - | - |
| 1777994945 | 18.33° C | 54% | 1015.5 hPa | - | - | - | - |
| 1777994045 | 18.33° C | 55% | 1015.5 hPa | - | - | - | - |
| 1777993144 | 18.33° C | 55% | 1015.6 hPa | - | - | - | - |
| 1777992244 | 18.33° C | 58% | 1015.6 hPa | - | - | - | - |
| 1777991344 | 19.44° C | 58% | 1015.7 hPa | - | - | - | - |
| 1777990444 | 19.44° C | 59% | 1015.8 hPa | - | - | - | - |
| 1777989544 | 19.44° C | 59% | 1015.8 hPa | - | - | - | - |
* Rain since midnight (hover to see other rain measurements)
** Current wind speed in m/s (hover to see current wind gust speed)